GW2929 Weather Reports


Display with metric or nautical units.
time (UTC)temp
F
wind
direction
speed
MPH
gust
MPH
rain 1hr
in
rain 24hr
in
rain mn
in
humidity
%
barometer
mb
20260906163503 92 250 1.0 1.0 0.00 0.00 0.00 69 1009.1
20260906163004 94 216 1.0 2.0 0.00 0.00 0.00 65 1008.9
20260906162501 94 221 1.0 1.0 0.00 0.00 0.00 66 1009.0
20260906161955 95 222 1.0 1.0 0.00 0.00 0.00 66 1009.1
20260906161449 94 153 2.0 3.0 0.00 0.00 0.00 65 1009.3
20260906160948 95 189 2.0 3.0 0.00 0.00 0.00 64 1009.2
20260906160442 94 195 2.0 3.0 0.00 0.00 0.00 66 1009.1
20260906155940 93 220 0.0 0.0 0.00 0.00 0.00 68 1009.2
20260906155434 91 221 1.0 1.0 0.00 0.00 0.00 70 1009.2
20260906154930 90 199 1.0 1.0 0.00 0.00 0.00 73 1009.0
20260906154425 91 215 1.0 1.0 0.00 0.00 0.00 72 1009.2
20260906153923 93 212 1.0 2.0 0.00 0.00 0.00 68 1009.0
20260906153422 92 219 1.0 1.0 0.00 0.00 0.00 69 1008.8
20260906152918 91 281 3.0 4.0 0.00 0.00 0.00 72 1009.0
20260906152413 91 209 2.0 2.0 0.00 0.00 0.00 73 1009.0
20260906151912 91 130 2.0 3.0 0.00 0.00 0.00 72 1008.8
20260906151408 91 215 0.0 1.0 0.00 0.00 0.00 74 1009.0
20260906150903 91 252 1.0 1.0 0.00 0.00 0.00 74 1008.8
20260906150358 90 254 0.0 1.0 0.00 0.00 0.00 78 1008.8
20260906145858 90 219 0.0 1.0 0.00 0.00 0.00 76 1008.8
20260906145356 90 211 2.0 2.0 0.00 0.00 0.00 78 1008.9
20260906144851 90 195 1.0 2.0 0.00 0.00 0.00 79 1008.6
20260906144346 89 188 0.0 1.0 0.00 0.00 0.00 79 1008.5
20260906143847 88 221 0.0 1.0 0.00 0.00 0.00 82 1008.4
20260906143343 88 237 1.0 1.0 0.00 0.00 0.00 83 1008.6
20260906142838 89 195 1.0 2.0 0.00 0.00 0.00 83 1008.5
20260906142333 88 218 1.0 2.0 0.00 0.00 0.00 83 1008.7
20260906141833 86 216 0.0 0.0 0.00 0.00 0.00 88 1008.6
20260906141327 86 213 1.0 1.0 0.00 0.00 0.00 89 1008.3
20260906140826 86 177 2.0 3.0 0.00 0.00 0.00 89 1008.4
20260906140321 87 194 0.0 0.0 0.00 0.00 0.00 88 1008.6
20260906135819 87 214 0.0 0.0 0.00 0.00 0.00 88 1008.3
20260906135314 86 221 0.0 0.0 0.00 0.00 0.00 90 1008.3
20260906134809 86 207 1.0 2.0 0.00 0.00 0.00 89 1008.3
20260906134304 85 210 0.0 0.0 0.00 0.00 0.00 90 1008.3
20260906133800 85 217 0.0 0.0 0.00 0.00 0.00 91 1008.2
20260906133255 84 217 0.0 0.0 0.00 0.00 0.00 92 1008.2
20260906132750 83 227 0.0 0.0 0.00 0.00 0.00 94 1008.2
20260906132240 83 207 0.0 0.0 0.00 0.00 0.00 95 1008.1
20260906131736 81 216 0.0 0.0 0.00 0.00 0.00 98 1007.8
20260906131231 81 220 0.0 0.0 0.00 0.00 0.00 98 1008.2
20260906130726 80 223 0.0 0.0 0.00 0.00 0.00 99 1008.0
20260906130221 80 221 0.0 0.0 0.00 0.00 0.00 99 1008.2
20260906125719 80 220 0.0 0.0 0.00 0.00 0.00 99 1008.0
20260906125218 80 220 0.0 0.0 0.00 0.00 0.00 99 1007.8
20260906124713 79 220 0.0 0.0 0.00 0.00 0.00 99 1007.8
20260906124209 79 221 0.0 0.0 0.00 0.00 0.00 99 1007.8
20260906123707 79 224 0.0 0.0 0.00 0.00 0.00 99 1007.9
20260906123203 79 224 0.0 0.0 0.00 0.00 0.00 99 1007.7
20260906122702 79 225 0.0 0.0 0.00 0.00 0.00 99 1007.5
20260906122157 79 225 0.0 0.0 0.00 0.00 0.00 99 1007.5
20260906121654 79 225 0.0 0.0 0.00 0.00 0.00 99 1007.6
20260906121150 79 225 0.0 0.0 0.00 0.00 0.00 99 1007.5
20260906120645 79 226 0.0 0.0 0.00 0.00 0.00 99 1007.3
20260906120142 79 226 0.0 0.0 0.00 0.00 0.00 99 1007.3
20260906115642 79 226 0.0 0.0 0.00 0.00 0.00 99 1006.9
20260906115138 79 226 0.0 0.0 0.00 0.00 0.00 99 1007.1
20260906114637 79 225 0.0 0.0 0.00 0.00 0.00 99 1006.9
20260906114132 79 225 0.0 0.0 0.00 0.00 0.00 99 1007.0
20260906113632 79 225 0.0 0.0 0.00 0.00 0.00 99 1006.8
20260906113126 80 225 0.0 0.0 0.00 0.00 0.00 98 1006.8
20260906112626 80 225 0.0 0.0 0.00 0.00 0.00 98 1006.8
20260906112123 80 225 0.0 0.0 0.00 0.00 0.00 98 1006.8
20260906111622 80 225 0.0 0.0 0.00 0.00 0.00 98 1006.7
20260906111117 80 225 0.0 0.0 0.00 0.00 0.00 97 1006.5
20260906110617 80 224 0.0 0.0 0.00 0.00 0.00 97 1006.7
20260906110112 80 226 0.0 0.0 0.00 0.00 0.00 97 1006.5
20260906105606 80 218 0.0 0.0 0.00 0.00 0.00 97 1006.6
20260906105103 80 222 0.0 0.0 0.00 0.00 0.00 97 1006.7
20260906104601 80 224 0.0 0.0 0.00 0.00 0.00 97 1006.6
20260906104056 81 217 0.0 0.0 0.00 0.00 0.00 97 1006.6
20260906103554 81 220 0.0 0.0 0.00 0.00 0.00 96 1006.5
20260906103049 81 221 0.0 0.0 0.00 0.00 0.00 96 1006.5
20260906102543 81 212 0.0 0.0 0.00 0.00 0.00 96 1006.6
20260906102038 81 222 0.0 0.0 0.00 0.00 0.00 96 1006.3
20260906101533 81 214 0.0 0.0 0.00 0.00 0.00 96 1006.4
20260906101028 81 221 0.0 0.0 0.00 0.00 0.00 96 1006.4
20260906100523 81 218 0.0 0.0 0.00 0.00 0.00 96 1006.4
20260906100018 81 212 0.0 0.0 0.00 0.00 0.00 96 1006.3
20260906095513 81 217 0.0 0.0 0.00 0.00 0.00 96 1006.5
20260906095008 81 220 0.0 0.0 0.00 0.00 0.00 96 1006.4
20260906094507 81 221 0.0 0.0 0.00 0.00 0.00 96 1006.5
20260906094003 81 212 0.0 0.0 0.00 0.00 0.00 96 1006.5
20260906093459 81 219 0.0 0.0 0.00 0.00 0.00 96 1006.5
20260906092954 81 214 0.0 1.0 0.00 0.00 0.00 96 1006.5
20260906092454 81 212 0.0 0.0 0.00 0.00 0.00 95 1006.3
20260906091949 81 222 0.0 0.0 0.00 0.00 0.00 95 1006.5
20260906091444 81 219 0.0 0.0 0.00 0.00 0.00 95 1006.4
20260906090941 82 214 0.0 0.0 0.00 0.00 0.00 95 1006.4
20260906090435 82 212 0.0 0.0 0.00 0.00 0.00 94 1006.4
20260906085930 82 203 0.0 0.0 0.00 0.00 0.00 94 1006.4
20260906085429 82 206 0.0 0.0 0.00 0.00 0.00 94 1006.4
20260906084928 82 222 0.0 0.0 0.00 0.00 0.00 94 1006.3
20260906084424 82 216 0.0 0.0 0.00 0.00 0.00 94 1006.3
20260906083923 82 199 0.0 1.0 0.00 0.00 0.00 94 1006.5
20260906083418 82 221 0.0 0.0 0.00 0.00 0.00 94 1006.3
20260906082917 82 209 0.0 0.0 0.00 0.00 0.00 94 1006.3
20260906082413 82 211 0.0 0.0 0.00 0.00 0.00 94 1006.7
20260906081909 82 199 0.0 0.0 0.00 0.00 0.00 93 1006.6
20260906081404 82 216 0.0 0.0 0.00 0.00 0.00 93 1006.5
20260906080900 82 219 0.0 0.0 0.00 0.00 0.00 93 1006.5
20260906080357 82 221 0.0 0.0 0.00 0.00 0.00 93 1006.4
20260906075855 82 217 0.0 0.0 0.00 0.00 0.00 92 1006.5
20260906075350 82 208 0.0 0.0 0.00 0.00 0.00 92 1006.5
20260906074845 82 219 0.0 0.0 0.00 0.00 0.00 92 1006.5
20260906074340 82 211 0.0 0.0 0.00 0.00 0.00 92 1006.4
20260906073838 82 214 0.0 0.0 0.00 0.00 0.00 92 1006.5
20260906073334 82 212 0.0 0.0 0.00 0.00 0.00 92 1006.6
20260906072830 82 210 0.0 0.0 0.00 0.00 0.00 92 1006.6
20260906072326 82 214 0.0 0.0 0.00 0.00 0.00 92 1006.6
20260906071821 82 214 0.0 0.0 0.00 0.00 0.00 92 1006.5
20260906071316 82 219 0.0 0.0 0.00 0.00 0.00 92 1006.6
20260906070812 82 213 0.0 0.0 0.00 0.00 0.00 92 1006.6
20260906070307 82 206 0.0 0.0 0.00 0.00 0.00 92 1006.6
20260906065802 82 219 0.0 0.0 0.00 0.00 0.00 92 1006.6
20260906065257 82 215 0.0 0.0 0.00 0.00 0.00 92 1006.9
20260906064753 82 215 0.0 0.0 0.00 0.00 0.00 92 1007.1
20260906064249 82 206 0.0 0.0 0.00 0.00 0.00 92 1006.9
20260906063744 82 197 2.0 3.0 0.00 0.00 0.00 92 1007.1
20260906063239 82 197 0.0 0.0 0.00 0.00 0.00 93 1007.1
20260906062734 82 210 0.0 0.0 0.00 0.00 0.00 93 1007.3
20260906062233 82 211 0.0 0.0 0.00 0.00 0.00 93 1007.4
20260906061729 82 219 0.0 0.0 0.00 0.00 0.00 94 1007.4
20260906061226 82 212 0.0 0.0 0.00 0.00 0.00 93 1007.7
20260906060721 82 214 0.0 0.0 0.00 0.00 0.00 93 1007.7
20260906060218 82 212 0.0 0.0 0.00 0.00 0.00 93 1007.7
20260906055713 82 217 0.0 0.0 0.00 0.00 0.00 93 1007.6
20260906055209 82 218 0.0 0.0 0.00 0.00 0.00 93 1007.9
20260906054703 82 219 0.0 0.0 0.00 0.00 0.00 93 1007.8
20260906054158 82 219 0.0 0.0 0.00 0.00 0.00 93 1007.7
20260906053655 83 208 0.0 0.0 0.00 0.00 0.00 93 1007.7
20260906053150 83 216 0.0 0.0 0.00 0.00 0.00 92 1007.8
20260906052645 83 191 0.0 1.0 0.00 0.00 0.00 92 1007.8
20260906052142 83 211 0.0 0.0 0.00 0.00 0.00 92 1007.7
20260906051638 83 212 0.0 0.0 0.00 0.00 0.00 92 1007.8
20260906051137 83 200 0.0 0.0 0.00 0.00 0.00 92 1007.8
20260906050633 83 217 0.0 0.0 0.00 0.00 0.00 92 1007.8
20260906050128 83 221 0.0 1.0 0.00 0.00 0.00 92 1008.1
20260906045627 83 219 0.0 1.0 0.00 0.00 0.00 92 1008.1
20260906045122 83 193 0.0 0.0 0.00 0.00 0.00 91 1008.2
20260906044618 83 219 0.0 0.0 0.00 0.00 0.00 92 1008.5
20260906044112 83 221 0.0 0.0 0.00 0.00 0.00 92 1008.3
20260906043609 84 209 0.0 1.0 0.00 0.00 0.00 92 1008.4
20260906043104 84 222 0.0 0.0 0.00 0.00 0.00 91 1008.3
20260906042603 84 211 0.0 0.0 0.00 0.00 0.00 91 1008.1
20260906042052 84 201 0.0 1.0 0.00 0.00 0.00 91 1008.3
20260906041548 84 214 0.0 0.0 0.00 0.00 0.00 90 1008.4
20260906041043 84 214 0.0 0.0 0.00 0.00 0.00 90 1008.3
20260906040538 84 216 0.0 0.0 0.00 0.00 0.00 89 1008.2
20260906040028 84 215 0.0 0.0 0.00 0.00 0.00 89 1008.2
20260906035523 85 212 0.0 0.0 0.00 0.00 0.00 89 1008.0
20260906035019 85 214 0.0 0.0 0.00 0.00 0.00 89 1008.0
20260906034518 85 201 1.0 2.0 0.00 0.00 0.00 88 1008.0
20260906034014 85 230 1.0 2.0 0.00 0.00 0.00 88 1007.9
20260906033508 85 218 0.0 0.0 0.00 0.00 0.00 88 1007.9
20260906033004 85 211 0.0 0.0 0.00 0.00 0.00 88 1007.8
20260906032500 85 202 0.0 0.0 0.00 0.00 0.00 87 1007.9
20260906031954 85 191 2.0 3.0 0.00 0.00 0.00 87 1007.6
20260906031450 85 207 2.0 2.0 0.00 0.00 0.00 87 1007.7
20260906030946 85 209 0.0 0.0 0.00 0.00 0.00 86 1007.4
20260906030440 85 284 0.0 1.0 0.00 0.00 0.00 86 1007.3
20260906025940 85 195 0.0 1.0 0.00 0.00 0.00 86 1007.3
20260906025434 85 217 1.0 1.0 0.00 0.00 0.00 86 1007.2
20260906024933 85 217 0.0 1.0 0.00 0.00 0.00 86 1007.2
20260906024432 85 197 2.0 2.0 0.00 0.00 0.00 86 1007.4
20260906023927 85 181 1.0 1.0 0.00 0.00 0.00 87 1007.1
20260906023424 85 185 1.0 1.0 0.00 0.00 0.00 87 1007.0
20260906022923 85 204 0.0 0.0 0.00 0.00 0.00 87 1007.1
20260906022418 85 186 1.0 3.0 0.00 0.00 0.00 87 1006.9
20260906021909 85 219 0.0 0.0 0.00 0.00 0.00 87 1006.9
20260906021408 85 216 0.0 0.0 0.00 0.00 0.00 87 1006.9
20260906020902 85 216 0.0 0.0 0.00 0.00 0.00 87 1006.9
20260906020357 85 202 0.0 0.0 0.00 0.00 0.00 87 1006.7
20260906015852 85 184 1.0 6.0 0.00 0.00 0.00 87 1006.5
20260906015351 85 223 0.0 0.0 0.00 0.00 0.00 87 1006.5
20260906014850 85 208 1.0 2.0 0.00 0.00 0.00 87 1006.7
20260906014345 85 213 0.0 0.0 0.00 0.00 0.00 87 1006.4
20260906013841 85 194 2.0 2.0 0.00 0.00 0.00 87 1006.5
20260906013336 85 241 0.0 0.0 0.00 0.00 0.00 87 1006.3
20260906012832 86 210 1.0 1.0 0.00 0.00 0.00 87 1006.3
20260906012327 86 204 1.0 2.0 0.00 0.00 0.00 87 1006.1
20260906011827 86 220 0.0 0.0 0.00 0.00 0.00 87 1006.3
20260906011322 86 305 1.0 1.0 0.00 0.00 0.00 86 1006.4
20260906010818 86 189 2.0 2.0 0.00 0.00 0.00 86 1006.1
20260906010314 86 221 1.0 2.0 0.00 0.00 0.00 86 1006.1
20260906005809 86 195 1.0 2.0 0.00 0.00 0.00 85 1006.1
20260906005308 86 220 0.0 0.0 0.00 0.00 0.00 83 1005.8
20260906004806 86 148 2.0 3.0 0.00 0.00 0.00 83 1005.8
20260906004301 86 205 1.0 2.0 0.00 0.00 0.00 83 1005.9
20260906003756 86 258 1.0 3.0 0.00 0.00 0.00 82 1006.0
20260906003252 86 211 2.0 2.0 0.00 0.00 0.00 82 1005.6
20260906002746 87 112 2.0 2.0 0.00 0.00 0.00 82 1005.8
20260906002241 87 220 0.0 0.0 0.00 0.00 0.00 82 1005.7
20260906001736 87 228 1.0 3.0 0.00 0.00 0.00 82 1005.3
20260906001231 87 309 3.0 3.0 0.00 0.00 0.00 82 1005.4
20260906000727 87 112 2.0 3.0 0.00 0.00 0.00 81 1005.4
20260906000227 87 202 2.0 3.0 0.00 0.00 0.00 81 1005.6
20260905235721 87 31 1.0 4.0 0.00 0.00 0.00 81 1005.7
20260905235216 88 220 0.0 0.0 0.00 0.00 0.00 81 1005.6
20260905234711 88 179 3.0 4.0 0.00 0.00 0.00 79 1005.7
20260905234207 88 167 2.0 4.0 0.00 0.00 0.00 78 1005.8
20260905233702 88 291 2.0 2.0 0.00 0.00 0.00 78 1005.6
20260905233201 89 265 1.0 2.0 0.00 0.00 0.00 77 1005.5
20260905232656 89 25 3.0 6.0 0.00 0.00 0.00 77 1005.6
20260905232152 89 190 3.0 4.0 0.00 0.00 0.00 76 1005.5
20260905231648 89 192 2.0 3.0 0.00 0.00 0.00 76 1005.4
20260905231143 89 201 2.0 2.0 0.00 0.00 0.00 75 1005.5
20260905230639 89 338 1.0 6.0 0.00 0.00 0.00 75 1005.3
20260905230137 90 18 2.0 4.0 0.00 0.00 0.00 72 1005.3
20260905225636 90 208 2.0 4.0 0.00 0.00 0.00 70 1005.3
20260905225131 90 194 2.0 3.0 0.00 0.00 0.00 68 1005.3
20260905224630 90 219 3.0 6.0 0.00 0.00 0.00 69 1005.5
20260905224125 91 212 1.0 1.0 0.00 0.00 0.00 66 1005.5
20260905223622 91 217 2.0 2.0 0.00 0.00 0.00 68 1005.4
20260905223118 90 214 2.0 3.0 0.00 0.00 0.00 71 1005.5
20260905222618 91 217 2.0 3.0 0.00 0.00 0.00 73 1005.2
20260905222108 91 89 1.0 1.0 0.00 0.00 0.00 73 1005.4
20260905221604 91 223 1.0 1.0 0.00 0.00 0.00 73 1005.5
20260905221100 91 177 2.0 3.0 0.00 0.00 0.00 72 1005.3
20260905220555 91 217 3.0 4.0 0.00 0.00 0.00 72 1005.4
20260905220051 91 192 1.0 2.0 0.00 0.00 0.00 71 1005.4
20260905215551 91 218 1.0 1.0 0.00 0.00 0.00 72 1005.5
20260905215046 92 187 3.0 4.0 0.00 0.00 0.00 70 1005.7
20260905214542 91 230 2.0 3.0 0.00 0.00 0.00 72 1005.6
20260905214037 92 147 2.0 2.0 0.00 0.00 0.00 70 1005.4
20260905213532 92 232 1.0 2.0 0.00 0.00 0.00 72 1005.6
20260905213028 93 193 2.0 4.0 0.00 0.00 0.00 71 1005.5
20260905212523 93 49 3.0 6.0 0.00 0.00 0.00 70 1005.6
20260905212022 93 210 1.0 2.0 0.00 0.00 0.00 69 1005.4
20260905211518 93 208 4.0 8.0 0.00 0.00 0.00 69 1005.7
20260905211013 94 210 1.0 1.0 0.00 0.00 0.00 70 1005.7
20260905210509 93 206 1.0 2.0 0.00 0.00 0.00 70 1005.8
20260905210008 94 192 2.0 4.0 0.00 0.00 0.00 70 1005.8
20260905205502 93 197 3.0 3.0 0.00 0.00 0.00 71 1005.7
20260905205001 93 218 2.0 2.0 0.00 0.00 0.00 70 1005.7
20260905204456 92 205 2.0 2.0 0.00 0.00 0.00 71 1005.9
20260905203956 91 199 2.0 4.0 0.00 0.00 0.00 71 1006.1
20260905203451 94 188 2.0 2.0 0.00 0.00 0.00 69 1005.9
20260905202947 93 218 1.0 1.0 0.00 0.00 0.00 70 1006.2
20260905202442 93 221 1.0 1.0 0.00 0.00 0.00 69 1006.4
20260905201938 92 346 2.0 3.0 0.00 0.00 0.00 71 1006.6
20260905201433 92 11 1.0 1.0 0.00 0.00 0.00 70 1006.4
20260905200932 93 198 1.0 1.0 0.00 0.00 0.00 69 1006.7
20260905200429 93 334 3.0 3.0 0.00 0.00 0.00 69 1006.6
20260905195926 93 181 4.0 4.0 0.00 0.00 0.00 69 1006.7
20260905195422 94 216 2.0 2.0 0.00 0.00 0.00 71 1006.7
20260905194918 94 158 3.0 6.0 0.00 0.00 0.00 68 1006.9
20260905194417 94 272 2.0 2.0 0.00 0.00 0.00 69 1007.0
20260905193917 94 217 4.0 7.0 0.00 0.00 0.00 69 1007.0
20260905193412 94 202 3.0 7.0 0.00 0.00 0.00 68 1007.0
20260905192907 93 40 4.0 8.0 0.00 0.00 0.00 69 1007.2
20260905192403 94 223 2.0 2.0 0.00 0.00 0.00 69 1007.3
20260905191903 96 237 4.0 6.0 0.00 0.00 0.00 66 1007.4
20260905191402 95 178 1.0 2.0 0.00 0.00 0.00 64 1007.2
20260905190901 96 222 0.0 1.0 0.00 0.00 0.00 63 1007.2
20260905190354 96 193 2.0 3.0 0.00 0.00 0.00 66 1007.4
20260905185853 96 205 1.0 2.0 0.00 0.00 0.00 64 1007.5
20260905185349 96 246 2.0 2.0 0.00 0.00 0.00 63 1007.3
20260905184848 96 231 3.0 4.0 0.00 0.00 0.00 63 1007.4
20260905184348 97 202 0.0 1.0 0.00 0.00 0.00 60 1007.4
20260905183846 95 178 2.0 2.0 0.00 0.00 0.00 62 1007.5
20260905183342 95 224 2.0 3.0 0.00 0.00 0.00 62 1007.5
20260905182841 96 219 1.0 2.0 0.00 0.00 0.00 63 1007.5
20260905182335 96 211 2.0 3.0 0.00 0.00 0.00 62 1007.8
20260905181831 96 209 1.0 2.0 0.00 0.00 0.00 64 1007.8
20260905181331 95 169 2.0 3.0 0.00 0.00 0.00 66 1007.7
20260905180830 94 218 1.0 1.0 0.00 0.00 0.00 67 1007.8
20260905180325 94 194 1.0 1.0 0.00 0.00 0.00 67 1008.2
20260905175820 94 201 2.0 3.0 0.00 0.00 0.00 67 1008.2
20260905175314 95 188 2.0 2.0 0.00 0.00 0.00 65 1008.4
20260905174810 96 225 2.0 2.0 0.00 0.00 0.00 64 1008.2
20260905174306 95 328 3.0 3.0 0.00 0.00 0.00 64 1008.5
20260905173801 94 220 1.0 1.0 0.00 0.00 0.00 67 1008.2
20260905173257 95 189 3.0 4.0 0.00 0.00 0.00 66 1008.3
20260905172756 95 210 2.0 2.0 0.00 0.00 0.00 66 1008.6
20260905172255 96 236 3.0 3.0 0.00 0.00 0.00 65 1008.3
20260905171751 95 224 2.0 2.0 0.00 0.00 0.00 67 1008.5
20260905171248 93 229 0.0 1.0 0.00 0.00 0.00 69 1008.5
20260905170744 94 206 1.0 1.0 0.00 0.00 0.00 71 1008.6
20260905170239 93 192 2.0 2.0 0.00 0.00 0.00 70 1008.5
20260905165738 92 202 2.0 3.0 0.00 0.00 0.00 71 1008.5
20260905165233 92 225 2.0 2.0 0.00 0.00 0.00 72 1008.6
20260905164728 91 186 3.0 4.0 0.00 0.00 0.00 72 1008.5
20260905164223 91 213 1.0 2.0 0.00 0.00 0.00 75 1008.5